Wind_Speed
24 25 26 26 25 25 23 23 24 24 25 27 28 30 34 35 36 35 35 33 30 28 27 26 24 23 21 21 22 22 24 20 19 16 12 10 10 12 13 13 13 12 10 12 14
29 28 27 28 28 28 28 28 27 27 27 29 30 32 33 34 36 38 39 39 38 36 32 31 31 30 28 26 25 25 25 24 21 19 17 14 14 15 15 15 15 15 15 14 14
31 31 30 31 32 33 33 32 30 30 30 31 30 31 32 35 37 38 36 38 40 41 40 36 35 35 33 32 30 28 25 26 23 20 19 19 19 19 19 19 18 17 17 16 16
30 33 33 34 34 34 36 37 36 35 35 34 33 34 33 34 35 37 39 39 40 41 42 42 39 38 37 37 36 33 29 25 24 24 22 20 20 21 22 21 19 20 20 18 18
28 31 33 35 36 36 36 38 39 39 38 39 38 36 36 39 39 37 38 38 40 42 44 43 43 41 39 39 39 36 34 30 24 26 27 24 21 24 24 25 24 23 25 21 20
29 30 31 33 33 35 37 38 39 39 40 39 39 41 40 40 40 40 40 40 40 41 43 45 44 42 40 39 40 40 37 34 29 27 30 31 27 26 28 27 27 29 28 28 26
33 32 31 30 31 32 32 33 34 33 34 35 36 38 40 43 42 42 42 43 43 42 43 43 42 42 41 40 41 41 37 35 34 28 30 34 34 28 32 33 30 29 31 33 31
40 38 35 36 34 32 31 30 33 30 28 30 31 32 36 42 41 41 44 45 45 44 43 42 43 42 39 40 40 41 38 34 35 32 28 31 43 34 34 36 37 31 29 31 32
43 44 42 40 37 38 37 34 35 35 34 32 30 28 31 40 37 36 38 39 38 39 40 41 41 40 41 41 39 41 39 37 35 36 29 31 40 44 40 40 42 36 34 33 33
43 45 48 46 45 44 43 41 40 38 36 35 34 34 33 36 36 37 38 37 36 35 35 38 39 41 45 38 35 39 40 40 39 37 33 33 37 47 45 43 47 43 40 38 37
49 49 49 48 49 51 51 49 46 41 42 40 37 36 37 41 42 44 43 42 42 39 39 38 39 42 43 41 39 39 39 39 43 36 31 36 33 44 49 46 51 50 47 44 42
51 51 53 50 52 52 53 53 50 49 42 42 44 43 42 42 44 48 50 48 47 45 46 40 40 44 42 40 38 39 38 40 40 39 34 38 35 41 43 51 53 55 53 49 47
57 56 57 53 54 54 53 54 52 50 44 45 47 46 50 53 48 50 53 50 49 48 48 41 43 44 42 40 40 38 37 39 38 40 37 35 32 38 41 43 54 58 57 55 52
62 60 61 62 59 58 59 57 53 53 41 38 53 45 48 52 50 57 57 54 53 53 53 47 50 48 45 45 42 38 40 37 37 36 31 38 26 32 38 43 49 59 60 61 61
67 68 67 70 65 69 64 61 60 57 41 41 39 49 54 57 54 55 61 60 59 59 58 56 55 54 52 51 49 43 46 42 38 36 31 34 31 26 32 40 46 54 60 62 66
76 77 73 74 71 69 69 68 65 56 44 43 47 51 58 63 61 59 62 60 59 58 56 58 56 56 56 56 55 52 52 49 45 44 35 40 35 28 39 46 48 56 59 65 71
77 81 84 83 78 78 80 74 73 60 54 52 56 56 59 60 64 67 66 63 64 63 60 61 60 60 59 57 55 58 57 56 50 49 40 41 34 35 46 50 53 57 62 67 67
91 83 93 88 90 87 86 85 62 59 67 65 61 63 63 65 67 67 66 64 67 69 65 62 58 62 59 62 62 59 62 63 56 53 39 42 32 36 42 43 49 58 65 65 68
101 89 85 94 92 94 93 93 69 75 75 76 78 71 68 70 72 70 71 69 70 74 76 77 68 66 65 65 67 62 62 66 67 58 51 41 37 40 44 45 57 66 66 68 69
116 110 99 99 103 101 102 84 82 77 86 83 86 85 76 73 77 77 75 71 77 78 79 77 80 74 74 73 69 73 71 67 70 65 57 38 44 42 41 54 71 70 68 71 73
134 130 118 108 112 113 103 92 93 87 86 96 87 87 84 86 84 83 79 76 78 80 83 87 89 82 78 73 74 77 73 76 78 74 75 60 40 44 54 71 75 74 72 73 75
141 143 138 128 125 125 117 104 99 95 98 97 100 88 90 93 91 90 84 76 84 87 91 93 97 90 82 81 79 80 80 78 78 76 75 79 46 49 65 72 76 76 78 79 79
146 148 144 137 138 131 122 114 119 117 111 105 105 97 97 97 96 93 94 92 85 89 94 99 100 97 90 83 78 82 84 84 86 85 69 91 49 70 67 73 83 82 84 87 90
134 135 143 142 143 140 136 133 134 123 114 117 108 106 104 98 105 101 90 99 103 95 95 103 105 100 92 90 93 90 83 84 87 86 82 82 82 60 74 87 92 89 92 94 100
131 134 137 145 144 142 143 140 131 132 129 115 115 103 107 111 107 101 103 103 109 113 105 108 104 102 103 92 96 102 95 83 78 81 95 87 88 78 81 89 97 99 105 104 103
127 124 125 132 132 133 139 140 137 127 122 116 117 112 111 118 112 107 112 112 117 115 122 118 108 109 106 103 106 107 105 91 93 84 91 96 95 92 97 96 101 101 111 110 112
115 117 121 126 130 132 136 131 131 123 127 123 118 120 121 111 117 122 116 120 116 119 118 121 112 112 114 110 116 118 95 107 96 100 106 102 102 103 105 107 111 105 116 119 119
Wind_Direction
267 266 269 268 270 278 278 276 277 277 276 278 280 281 279 279 279 281 282 284 285 287 288 290 293 298 308 313 324 331 333 336 344 357 351 336 308 306 316 320 318 317 310 307 313
261 261 263 261 263 262 270 271 271 272 273 277 281 281 283 283 283 283 283 284 285 284 284 288 291 295 300 306 312 317 324 323 327 337 349 333 318 313 314 312 314 312 304 298 295
263 263 260 255 256 258 262 266 268 271 277 278 280 283 283 283 283 283 284 283 283 283 282 282 285 290 295 298 305 308 312 317 314 320 331 339 325 325 323 321 318 314 305 295 292
266 268 266 262 258 257 261 265 269 269 275 277 279 280 281 283 286 286 285 284 285 287 287 285 281 279 285 290 294 299 305 305 308 309 314 322 326 318 320 316 310 307 307 297 296
274 265 265 266 263 265 263 263 267 270 276 275 280 281 279 280 281 282 285 286 286 286 287 290 288 286 285 284 286 290 295 296 301 306 307 305 310 310 311 310 303 300 299 294 287
274 271 266 266 269 267 269 269 271 274 274 276 277 282 282 281 283 284 286 287 287 288 287 286 286 285 284 282 283 283 285 285 289 294 299 300 301 299 302 305 299 297 292 291 289
270 270 268 269 269 271 271 272 274 276 280 281 283 285 284 281 281 281 282 282 283 285 287 287 286 286 282 278 277 277 280 275 278 281 288 294 293 296 293 296 299 297 291 287 290
269 267 267 270 270 268 268 269 273 277 280 284 287 286 286 285 283 281 282 283 284 285 286 286 285 285 284 278 270 272 274 271 271 274 281 289 281 295 293 292 291 298 296 289 290
266 268 270 268 269 269 268 267 269 271 275 278 283 287 287 285 288 285 282 283 283 285 286 287 284 280 281 278 272 276 269 267 265 269 275 284 282 288 292 291 287 292 293 293 294
269 268 266 268 269 268 270 269 269 272 275 278 281 280 280 284 283 283 284 285 287 290 292 292 292 286 277 277 278 273 268 264 262 264 273 280 285 285 289 290 288 290 292 292 294
283 272 268 268 269 269 270 271 274 272 272 275 280 282 278 279 280 280 281 283 284 284 288 293 298 286 283 279 277 274 270 264 264 266 271 279 284 281 288 290 288 286 290 292 294
282 275 272 271 270 270 271 268 268 270 273 273 272 274 279 277 279 281 280 281 283 284 286 288 293 289 288 284 281 278 274 268 268 269 274 281 281 276 282 286 285 283 288 294 298
277 281 280 280 275 271 269 272 271 269 270 272 271 274 278 277 276 280 279 280 281 283 284 288 285 287 289 289 284 282 280 275 274 277 280 281 283 280 275 276 281 283 289 296 295
271 274 276 279 281 276 273 271 272 271 268 269 274 276 277 276 277 275 278 278 279 280 283 285 284 285 286 286 284 282 281 278 277 277 281 285 274 276 272 271 272 282 290 293 293
267 268 271 275 276 277 275 272 273 271 268 265 267 275 276 278 274 275 276 278 280 282 284 284 282 283 284 284 283 281 280 281 279 280 279 280 283 259 264 264 270 277 286 289 287
264 266 270 269 272 273 273 277 272 271 282 263 262 266 271 276 275 272 272 275 278 280 282 282 283 284 283 283 285 282 279 279 279 279 281 280 284 279 274 271 276 279 283 282 284
273 265 271 269 270 268 268 274 271 275 277 277 265 259 262 265 270 272 272 275 275 278 277 279 282 281 282 282 285 285 283 280 276 277 279 275 278 275 272 277 279 282 282 281 285
271 272 268 274 265 268 265 266 274 277 272 268 267 265 261 259 263 266 271 277 281 282 282 279 277 280 282 284 284 284 286 285 278 276 272 275 272 272 279 281 281 280 279 282 286
276 273 270 266 270 264 265 263 278 271 272 266 266 269 266 262 262 264 267 271 278 281 281 278 278 278 283 285 285 286 285 282 283 278 270 267 274 277 284 282 277 275 279 282 285
275 272 270 269 271 266 262 268 271 272 264 269 264 268 267 265 267 267 267 269 275 277 278 278 277 278 282 285 287 285 281 282 284 282 279 272 271 278 275 276 276 278 280 283 284
278 273 273 271 272 268 264 270 268 268 266 266 267 264 268 265 267 268 269 268 273 272 274 278 279 280 280 283 281 282 284 283 281 283 284 282 275 283 280 274 278 280 282 284 285
275 274 273 270 270 270 273 273 265 270 267 269 266 270 267 266 270 268 271 273 270 272 274 277 276 276 278 282 283 284 284 281 283 283 285 286 289 280 275 278 281 281 280 284 290
274 271 274 272 270 272 271 269 271 274 271 267 268 265 263 269 268 269 265 268 272 271 271 274 274 275 276 280 283 276 278 280 280 282 289 281 285 281 283 288 288 283 284 285 286
270 269 268 271 270 270 271 271 273 273 269 272 268 263 259 269 267 264 263 263 266 267 270 270 275 275 277 275 278 280 277 275 277 282 281 280 281 271 281 283 286 289 288 287 286
267 267 267 267 268 268 270 272 270 271 271 267 268 260 256 266 261 264 265 264 260 263 266 270 274 276 275 276 276 277 278 277 281 280 277 280 279 288 280 278 281 283 284 285 289
264 263 262 262 263 264 265 267 269 268 263 262 262 262 263 263 259 263 264 264 259 261 264 271 268 271 276 277 275 273 273 282 278 280 280 286 283 286 285 284 283 285 285 290 290
262 262 261 259 260 258 263 264 264 263 261 265 262 257 258 264 259 263 266 263 262 257 259 265 272 273 274 274 271 270 282 272 281 279 277 279 283 286 285 285 284 289 287 287 289
Height
10847 10848 10849 10850 10849 10849 10848 10849 10849 10849 10849 10849 10849 10848 10848 10848 10847 10848 10847 10847 10847 10846 10845 10844 10844 10842 10840 10839 10837 10834 10832 10830 10827 10825 10823 10820 10818 10816 10814 10812 10809 10807 10804 10802 10801
10841 10841 10842 10844 10845 10844 10843 10843 10843 10843 10843 10843 10842 10841 10841 10841 10841 10841 10841 10840 10839 10840 10840 10839 10837 10836 10836 10834 10833 10830 10828 10825 10823 10820 10818 10816 10814 10811 10809 10808 10806 10803 10801 10799 10797
10837 10836 10835 10836 10836 10837 10838 10838 10837 10838 10838 10837 10837 10836 10835 10834 10833 10832 10832 10832 10831 10830 10830 10831 10831 10829 10828 10827 10826 10825 10823 10820 10818 10815 10813 10810 10807 10806 10804 10802 10800 10799 10796 10794 10791
10830 10831 10831 10830 10830 10830 10831 10832 10832 10832 10831 10831 10830 10830 10829 10828 10827 10825 10824 10823 10822 10821 10822 10822 10823 10822 10821 10820 10819 10818 10816 10815 10812 10809 10807 10806 10803 10800 10799 10797 10795 10793 10791 10789 10787
10825 10823 10824 10824 10823 10824 10825 10825 10825 10825 10825 10825 10824 10823 10823 10822 10820 10819 10817 10816 10815 10814 10813 10813 10813 10813 10813 10812 10811 10811 10809 10807 10805 10802 10800 10799 10798 10794 10793 10790 10788 10787 10785 10783 10782
10819 10818 10817 10817 10818 10817 10818 10818 10818 10819 10818 10818 10818 10817 10816 10815 10813 10812 10811 10809 10808 10806 10805 10804 10803 10803 10803 10803 10802 10802 10802 10800 10798 10796 10793 10790 10790 10789 10786 10784 10781 10778 10777 10776 10775
10813 10812 10811 10811 10812 10812 10811 10811 10811 10811 10811 10811 10810 10809 10808 10805 10804 10803 10802 10800 10799 10798 10797 10796 10794 10793 10793 10792 10792 10792 10793 10793 10791 10790 10787 10781 10780 10783 10777 10774 10774 10772 10769 10767 10766
10805 10805 10805 10805 10805 10805 10805 10805 10804 10804 10803 10803 10802 10801 10799 10796 10795 10793 10792 10792 10791 10789 10787 10786 10785 10783 10782 10782 10781 10780 10782 10783 10783 10782 10781 10777 10762 10772 10770 10766 10763 10764 10762 10760 10758
10796 10797 10797 10797 10797 10797 10798 10798 10797 10797 10797 10796 10795 10794 10791 10787 10786 10785 10783 10782 10781 10780 10778 10777 10775 10774 10773 10770 10773 10771 10772 10772 10773 10773 10774 10771 10760 10754 10758 10756 10751 10753 10753 10751 10749
10787 10787 10787 10788 10788 10788 10788 10790 10790 10791 10790 10789 10789 10786 10784 10780 10777 10775 10774 10773 10772 10771 10770 10768 10767 10765 10759 10761 10763 10762 10762 10761 10761 10764 10766 10765 10760 10743 10746 10745 10739 10739 10740 10740 10738
10777 10776 10776 10778 10778 10779 10778 10780 10781 10782 10782 10782 10782 10778 10776 10772 10769 10765 10763 10763 10762 10762 10761 10760 10758 10752 10750 10751 10752 10751 10751 10753 10748 10755 10759 10755 10755 10742 10732 10733 10726 10724 10726 10727 10727
10766 10766 10765 10767 10767 10767 10766 10767 10770 10772 10775 10773 10772 10770 10766 10762 10761 10755 10751 10752 10750 10752 10749 10752 10750 10740 10741 10742 10743 10741 10743 10741 10742 10745 10749 10746 10747 10737 10731 10719 10714 10710 10711 10715 10714
10754 10754 10752 10755 10755 10755 10755 10755 10756 10757 10765 10763 10760 10760 10757 10752 10751 10745 10738 10741 10740 10740 10738 10742 10737 10732 10733 10732 10733 10733 10733 10733 10735 10734 10738 10739 10739 10730 10723 10719 10702 10696 10699 10700 10700
10740 10739 10738 10741 10742 10739 10741 10741 10742 10743 10754 10758 10747 10749 10745 10739 10744 10730 10728 10728 10729 10728 10726 10732 10724 10724 10723 10722 10723 10725 10721 10723 10725 10726 10729 10724 10732 10722 10715 10706 10700 10689 10686 10682 10680
10726 10725 10724 10724 10728 10724 10726 10726 10729 10729 10745 10745 10743 10735 10728 10724 10725 10722 10715 10716 10717 10715 10715 10716 10714 10712 10712 10710 10711 10716 10711 10712 10715 10716 10719 10714 10718 10715 10708 10700 10691 10681 10674 10671 10662
10708 10709 10708 10707 10710 10707 10706 10710 10713 10718 10734 10732 10728 10724 10717 10708 10707 10706 10701 10701 10701 10702 10704 10700 10701 10699 10697 10696 10696 10701 10698 10700 10703 10703 10712 10704 10708 10711 10697 10691 10686 10671 10664 10657 10648
10689 10690 10689 10687 10689 10688 10688 10690 10696 10713 10718 10716 10708 10704 10701 10699 10693 10688 10687 10688 10684 10682 10687 10685 10685 10684 10682 10682 10684 10682 10681 10682 10689 10686 10698 10694 10696 10693 10683 10680 10672 10662 10646 10640 10639
10664 10672 10671 10665 10664 10664 10665 10667 10691 10703 10694 10692 10685 10682 10685 10684 10680 10677 10675 10675 10669 10664 10666 10666 10670 10662 10671 10666 10667 10670 10663 10658 10664 10667 10683 10678 10686 10681 10672 10666 10655 10641 10629 10627 10622
10637 10645 10651 10638 10637 10638 10635 10645 10680 10678 10676 10671 10661 10664 10668 10665 10657 10660 10663 10665 10655 10647 10642 10639 10653 10649 10649 10652 10648 10656 10651 10642 10637 10651 10661 10670 10672 10667 10661 10653 10633 10618 10618 10614 10607
10606 10611 10628 10608 10605 10606 10601 10641 10651 10652 10649 10643 10641 10643 10650 10647 10642 10640 10645 10654 10643 10636 10620 10623 10619 10633 10635 10636 10638 10627 10630 10628 10619 10623 10632 10660 10655 10651 10646 10636 10609 10605 10605 10600 10592
10567 10568 10599 10591 10570 10567 10578 10617 10619 10625 10621 10614 10621 10623 10628 10625 10620 10619 10631 10633 10623 10615 10604 10600 10596 10611 10616 10624 10618 10608 10613 10607 10598 10603 10602 10624 10650 10641 10628 10605 10593 10586 10584 10581 10580
10543 10531 10551 10564 10540 10538 10558 10581 10586 10596 10591 10587 10590 10601 10602 10599 10600 10600 10610 10607 10600 10595 10585 10580 10573 10580 10597 10600 10600 10591 10589 10582 10580 10586 10586 10577 10626 10624 10595 10585 10572 10568 10566 10565 10565
10512 10507 10496 10510 10506 10520 10525 10544 10544 10565 10565 10560 10561 10570 10570 10577 10571 10579 10583 10586 10577 10572 10565 10554 10544 10549 10574 10581 10580 10572 10569 10567 10561 10561 10583 10534 10602 10570 10577 10563 10544 10551 10547 10544 10538
10476 10470 10472 10469 10477 10483 10490 10501 10510 10525 10527 10532 10533 10533 10539 10549 10543 10548 10564 10559 10552 10545 10538 10526 10523 10534 10542 10560 10548 10545 10548 10552 10547 10548 10547 10538 10538 10574 10562 10536 10525 10524 10518 10515 10504
10437 10437 10439 10432 10452 10456 10451 10457 10472 10488 10494 10495 10497 10507 10512 10507 10509 10513 10535 10525 10520 10516 10514 10504 10501 10505 10513 10530 10523 10511 10512 10531 10540 10534 10509 10526 10508 10533 10533 10518 10508 10502 10490 10485 10486
10399 10403 10404 10404 10408 10411 10420 10429 10437 10452 10452 10460 10465 10483 10474 10469 10478 10496 10486 10485 10482 10488 10487 10481 10483 10476 10479 10499 10489 10474 10480 10515 10506 10513 10493 10489 10485 10500 10486 10491 10482 10483 10457 10459 10454
10365 10366 10364 10375 10380 10375 10388 10397 10408 10423 10416 10428 10435 10433 10432 10456 10444 10444 10443 10450 10448 10452 10456 10454 10457 10451 10448 10461 10442 10430 10492 10467 10483 10480 10471 10465 10465 10468 10465 10456 10444 10458 10436 10429 10425